Location: ???? ????
(31.2831°N, 45.5190°E)
Time: 08:24:28
(UTC+00:00)

Daily predictions for brighter satellites

Satellite Brightness Start Highest point End
(mag) Time Altitude Azimuth Time Altitude Azimuth Time Altitude Azimuth
Cosmos 968 Rocket 3.7 14:38:09 10° NNW 14:43:25 80° WSW 14:48:38 10° S
NOSS 3-2 (A) 3.6 14:39:35 10° S 14:44:48 44° ESE 14:50:28 10° NE
CORIOLIS 4.2 14:42:16 10° SSE 14:47:36 89° ENE 14:52:59 10° NNW
USA 116 4.3 14:45:31 10° NE 14:48:29 28° E 14:51:44 10° SSE
Cosmos 1271 Rocket 2.9 14:45:39 10° N 14:49:40 81° W 14:53:39 10° S
COBE Rocket 4.0 14:47:33 10° NNE 14:52:41 88° ESE 14:57:39 10° SSW
Cosmos 1300 4.3 14:52:32 10° SE 14:54:47 15° E 14:57:03 10° NE
H-2A R/B 3.5 14:53:18 10° S 14:57:07 59° W 15:00:59 10° NNW
Okean-O 2.7 14:53:51 10° SSE 14:58:16 84° WSW 15:02:43 10° NNW
Cosmos 2082 Rocket 3.8 14:55:26 10° NNE 14:58:22 14° ENE 15:00:45 11° E
IUS-18 SRM-1 3.9 14:49:18 10° WSW 15:00:31 47° S 15:03:30 12° ESE
Cosmos 1821 Rocket 4.4 14:57:57 10° NNW 15:04:01 67° W 15:10:09 10° S
COSMO-SKYMED 1 2.6 15:00:05 10° N 15:04:26 87° WNW 15:08:47 10° SSW
Cosmos 1605 Rocket 4.2 14:58:53 10° N 15:04:44 45° E 15:10:30 10° SSE
BREEZE-M DEB (TANK) 3.5 14:56:25 10° NW 15:05:42 65° NE 15:08:25 12° ESE
OAO 2 Rocket 3.4 15:00:53 10° WNW 15:06:08 78° NNE 15:10:46 14° E
Cosmos 1727 Rocket 4.2 15:01:51 10° SSE 15:07:39 44° E 15:13:26 10° NNE
Cosmos 839 Rocket 4.4 15:02:06 10° NNW 15:08:22 53° ENE 15:15:48 10° SE
CZ-4 R/B 1.6 15:04:57 10° SSE 15:08:56 49° ENE 15:12:59 10° N
NOSS 3-2 (C) 3.6 15:04:35 10° S 15:09:48 43° ESE 15:15:26 10° NE
Cosmos 1934 Rocket 4.0 15:03:32 10° N 15:09:55 82° E 15:16:17 10° S
Cosmos 44 3.9 15:06:28 10° S 15:11:07 37° ESE 15:15:33 10° NE
COSMOS 2406 3.2 15:06:32 10° NNW 15:12:15 65° ENE 15:17:54 10° SSE
OAO 3 Copernicus 4.5 15:07:19 10° W 15:12:24 70° NNW 15:16:20 17° ENE
EO 1 Delta rocket 4.2 15:08:17 10° SE 15:12:38 41° ENE 15:17:03 10° N
NOAA 12 4.4 15:09:21 10° S 15:14:35 71° WSW 15:19:52 10° NNW
CZ-4C R/B 4.4 15:08:16 10° NW 15:15:32 43° WSW 15:23:20 10° S
SL-4 R/B 3.2 15:16:46 10° WNW 15:20:15 36° SW 15:23:31 10° SSE
Cosmos 1703 3.2 15:17:09 10° N 15:21:04 89° E 15:24:58 10° S
Cosmos 1777 Rocket 4.0 15:19:17 10° N 15:24:24 58° ENE 15:29:30 10° SSE
ADEOS Rocket 4.4 15:20:32 10° NE 15:25:33 19° E 15:30:16 10° SE
OAO 3 Rocket 3.4 15:21:28 10° WNW 15:26:22 64° N 15:29:11 25° E
FengYun 1-2 T 4.3 15:23:53 10° SSE 15:29:32 89° WSW 15:35:10 10° NNW
Meteosat 1 Rocket2 3.0 15:26:32 10° WSW 15:30:12 51° S 15:31:42 29° ESE
Cosmos 2278 Rocket 3.4 15:26:10 10° SW 15:31:32 43° WNW 15:36:56 10° N
Unknown 2.3 15:30:53 10° NW 15:33:32 70° NE 15:33:45 65° E
Cosmos 2297 3.8 15:28:33 10° S 15:34:01 52° ESE 15:39:33 10° NNE
Cosmos 1242 Rocket 4.3 15:31:26 10° NNW 15:34:49 36° W 15:38:11 10° SSW
Cosmos 1812 Rocket 3.4 15:31:41 10° S 15:36:04 81° E 15:40:31 10° N
Delta 2 Rocket 3.4 15:33:50 10° W 15:37:14 48° NNW 15:38:13 35° NE
Cosmos 1076 Rocket 4.1 15:35:16 10° NNE 15:39:07 34° ENE 15:39:07 34° ENE
Meteor 1-11 4.4 15:33:27 10° N 15:39:15 80° W 15:45:03 10° S
ATLAS 3B R/B 2.8 15:33:31 10° S 15:40:05 51° ESE 15:45:04 17° NE
Cosmos 1763 Rocket 4.3 15:35:38 10° SSE 15:40:07 30° E 15:40:07 30° E
CSL-04 Rocket 3.7 15:39:57 10° SSE 15:45:30 85° WSW 15:51:02 10° NNW
YAOGAN 1 2.7 15:41:55 10° S 15:46:13 76° WSW 15:50:33 10° NNW
Cosmos 2100 Rocket 4.3 15:43:02 10° NNE 15:48:47 39° E 15:51:37 25° SE
CENTAUR R/B 2.3 15:43:39 10° SSW 15:49:08 63° ESE 15:53:31 20° NE
NOAA 11 4.0 15:55:00 10° SSE 16:00:26 77° ENE 16:05:52 10° N
Lacrosse 5 3.2 15:56:34 10° NNW 15:59:49 24° NNE 15:59:49 24° NNE
Cosmos 1153 Rocket 4.4 15:57:06 10° N 16:03:15 88° W 16:09:24 10° S
IRS-1A Rocket 4.2 16:03:15 43° SE 16:04:46 58° ENE 16:10:09 10° N
CZ-3 Stage 3 1.9 16:03:50 10° W 16:07:06 42° W 16:07:06 42° W
STPSAT 2 (USA 217) 4.5 16:05:57 10° NNW 16:10:20 76° NNE 16:10:20 76° NNE
Cosmos 1833 Rocket 2.7 16:08:46 10° NNW 16:14:23 80° WSW 16:17:29 28° SSE
Cosmos 1939 Rocket 3.1 16:14:54 64° WSW 16:15:03 65° W 16:19:03 10° NNW
USA 234 3.9 16:22:27 35° SSE 16:22:27 35° SSE 16:27:03 10° SSW
Ariane Rocket 3.5 16:32:23 36° SSW 16:34:15 58° W 16:39:17 10° NNW
Cosmos 1459 Rocket 4.0 16:35:22 10° N 16:41:37 77° W 16:43:09 54° SSW
Cosmos 2082 Rocket 2.4 16:37:17 10° NNW 16:42:41 66° W 16:42:41 66° W
H-2A R/B 4.0 15:27:23 10° WSW 16:46:21 85° SSE 16:49:45 57° E
NOSS 3-3 (A) 4.4 16:43:37 10° NNW 16:51:31 83° ENE 16:51:36 82° ENE
NOSS 3-3 (C) 4.4 16:43:43 10° NNW 16:51:37 82° ENE 16:51:38 82° ENE
BREEZE M DEB (TANK) 4.3 17:00:01 10° NW 17:02:10 41° NW 17:02:10 41° NW
ADEOS Rocket 3.7 17:04:05 10° N 17:11:29 63° WNW 17:18:13 10° SSW
ATLAS 3B R/B 4.4 17:25:28 10° WSW 17:30:57 26° NW 17:32:24 24° NNW
ATLAS 2AS CENTAUR R/B 4.2 23:41:33 35° NE 23:41:33 35° NE 23:45:48 10° NNE
